Time,TemperatureF,DewpointF,PressureIn,WindDirection,WindDirectionDegrees,WindSpeedMPH,WindSpeedGustMPH,Humidity,HourlyPrecipIn,Conditions,Clouds,dailyrainin,SoftwareType,DateUTC
2014-01-29 00:02:00,27.0,18.4,30.02,NNW,338,0.0,0.0,69,0.00,,,0.00,TxWx,2014-01-29 06:02:00,
2014-01-29 00:07:00,26.8,19.8,30.02,NW,315,0.0,0.0,74,0.00,,,0.00,TxWx,2014-01-29 06:07:00,
2014-01-29 00:12:00,26.6,19.5,30.02,WSW,248,0.0,0.0,74,0.00,,,0.00,TxWx,2014-01-29 06:12:00,
2014-01-29 00:17:00,26.3,19.3,30.02,WSW,248,0.0,0.0,74,0.00,,,0.00,TxWx,2014-01-29 06:17:00,
2014-01-29 00:22:00,25.9,19.9,30.02,WSW,248,0.0,0.0,77,0.00,,,0.00,TxWx,2014-01-29 06:22:00,
2014-01-29 00:27:00,25.6,20.5,30.02,WSW,248,0.0,0.0,80,0.00,,,0.00,TxWx,2014-01-29 06:27:00,
2014-01-29 00:32:00,25.3,20.3,30.02,WSW,248,0.0,0.0,81,0.00,,,0.00,TxWx,2014-01-29 06:32:00,
2014-01-29 00:37:00,24.9,20.1,30.02,WSW,248,0.0,0.0,81,0.00,,,0.00,TxWx,2014-01-29 06:37:00,
2014-01-29 00:42:00,24.6,19.8,30.02,WSW,248,0.0,0.0,81,0.00,,,0.00,TxWx,2014-01-29 06:42:00,
2014-01-29 00:47:00,24.4,20.5,30.02,SSW,203,0.0,0.0,84,0.00,,,0.00,TxWx,2014-01-29 06:47:00,
2014-01-29 00:51:00,24.3,20.4,30.02,SSW,203,0.0,0.0,84,0.00,,,0.00,TxWx,2014-01-29 06:51:00,
2014-01-29 00:56:00,24.2,20.0,30.02,SSW,203,0.0,0.0,84,0.00,,,0.00,TxWx,2014-01-29 06:56:00,
2014-01-29 01:01:00,24.0,20.0,30.01,SSW,203,0.0,0.0,84,0.00,,,0.00,TxWx,2014-01-29 07:01:00,
2014-01-29 01:06:00,23.9,20.3,30.01,SSW,203,0.0,0.0,86,0.00,,,0.00,TxWx,2014-01-29 07:06:00,
2014-01-29 01:11:00,23.9,20.1,30.01,SSW,203,0.0,0.0,84,0.00,,,0.00,TxWx,2014-01-29 07:11:00,
2014-01-29 01:16:00,23.7,20.8,30.00,SSW,203,0.0,0.0,88,0.00,,,0.00,TxWx,2014-01-29 07:16:00,
2014-01-29 01:21:00,23.6,20.7,30.00,SSW,203,0.0,0.0,88,0.00,,,0.00,TxWx,2014-01-29 07:21:00,
2014-01-29 01:26:00,23.3,20.4,30.00,SSW,203,0.0,0.0,88,0.00,,,0.00,TxWx,2014-01-29 07:26:00,
2014-01-29 01:31:00,23.1,20.1,30.00,SSW,203,0.0,0.0,88,0.00,,,0.00,TxWx,2014-01-29 07:31:00,
2014-01-29 01:36:00,22.9,20.0,30.00,SSW,203,0.0,0.0,88,0.00,,,0.00,TxWx,2014-01-29 07:36:00,
2014-01-29 01:41:00,22.8,20.2,29.99,SSW,203,0.0,0.0,89,0.00,,,0.00,TxWx,2014-01-29 07:41:00,
2014-01-29 01:46:00,22.8,20.7,29.99,SSW,203,0.0,0.0,91,0.00,,,0.00,TxWx,2014-01-29 07:46:00,
2014-01-29 01:51:00,22.8,20.5,30.00,SSW,203,0.0,0.0,90,0.00,,,0.00,TxWx,2014-01-29 07:51:00,
2014-01-29 01:56:00,22.7,20.6,30.00,SSW,203,0.0,0.0,91,0.00,,,0.00,TxWx,2014-01-29 07:56:00,
2014-01-29 02:01:00,22.4,20.4,30.00,SSW,203,0.0,0.0,92,0.00,,,0.00,TxWx,2014-01-29 08:01:00,
2014-01-29 02:06:00,22.2,20.4,30.00,SSW,203,0.0,0.0,92,0.00,,,0.00,TxWx,2014-01-29 08:06:00,
2014-01-29 02:11:00,22.2,20.7,30.00,SSW,203,0.0,0.0,93,0.00,,,0.00,TxWx,2014-01-29 08:11:00,
2014-01-29 02:16:00,22.2,20.7,30.00,SSW,203,0.0,0.0,93,0.00,,,0.00,TxWx,2014-01-29 08:16:00,
2014-01-29 02:21:00,22.1,20.6,30.00,SSW,203,0.0,0.0,93,0.00,,,0.00,TxWx,2014-01-29 08:21:00,
2014-01-29 02:26:00,22.0,20.5,30.00,SSW,203,0.0,0.0,93,0.00,,,0.00,TxWx,2014-01-29 08:26:00,
2014-01-29 02:30:00,22.0,20.4,30.00,SSW,203,0.0,0.0,93,0.00,,,0.00,TxWx,2014-01-29 08:30:00,
2014-01-29 02:35:00,21.8,19.9,30.00,SSW,203,0.0,0.0,92,0.00,,,0.00,TxWx,2014-01-29 08:35:00,
2014-01-29 02:40:00,21.8,19.9,30.00,SSW,203,0.0,0.0,92,0.00,,,0.00,TxWx,2014-01-29 08:40:00,
2014-01-29 02:45:00,21.7,20.0,30.01,SSW,203,0.0,0.0,92,0.00,,,0.00,TxWx,2014-01-29 08:45:00,
2014-01-29 02:50:00,21.6,19.8,30.01,WSW,248,0.0,0.0,92,0.00,,,0.00,TxWx,2014-01-29 08:50:00,
2014-01-29 02:55:00,21.6,19.5,30.01,WSW,248,0.0,0.0,91,0.00,,,0.00,TxWx,2014-01-29 08:55:00,
2014-01-29 03:00:00,21.5,19.4,30.01,WSW,248,0.0,0.0,91,0.00,,,0.00,TxWx,2014-01-29 09:00:00,
2014-01-29 03:05:00,21.6,19.8,30.01,WSW,248,0.0,0.0,92,0.00,,,0.00,TxWx,2014-01-29 09:05:00,
2014-01-29 03:10:00,21.6,19.9,30.00,WSW,248,0.0,0.0,93,0.00,,,0.00,TxWx,2014-01-29 09:10:00,
2014-01-29 03:15:00,21.7,19.8,30.00,WSW,248,0.0,0.0,92,0.00,,,0.00,TxWx,2014-01-29 09:15:00,
2014-01-29 03:20:00,21.9,20.0,30.01,WSW,248,0.0,0.0,92,0.00,,,0.00,TxWx,2014-01-29 09:20:00,
2014-01-29 03:25:00,22.0,20.1,30.01,WSW,248,0.0,0.0,92,0.00,,,0.00,TxWx,2014-01-29 09:25:00,
2014-01-29 03:30:00,22.0,20.3,30.01,WSW,248,0.0,0.0,93,0.00,,,0.00,TxWx,2014-01-29 09:30:00,
2014-01-29 03:35:00,21.9,20.4,30.00,WSW,248,0.0,0.0,93,0.00,,,0.00,TxWx,2014-01-29 09:35:00,
2014-01-29 03:40:00,21.9,20.1,30.00,WSW,248,0.0,0.0,92,0.00,,,0.00,TxWx,2014-01-29 09:40:00,
2014-01-29 03:45:00,21.8,20.2,30.00,WSW,248,0.0,0.0,93,0.00,,,0.00,TxWx,2014-01-29 09:45:00,
2014-01-29 03:50:00,21.8,20.3,30.00,SW,225,0.0,0.0,93,0.00,,,0.00,TxWx,2014-01-29 09:50:00,
2014-01-29 03:55:00,21.8,20.4,30.00,SW,225,0.0,0.0,94,0.00,,,0.00,TxWx,2014-01-29 09:55:00,
2014-01-29 04:00:00,21.7,20.2,30.00,SW,225,0.0,0.0,93,0.00,,,0.00,TxWx,2014-01-29 10:00:00,
2014-01-29 04:05:00,21.7,20.1,30.00,SW,225,0.0,0.0,93,0.00,,,0.00,TxWx,2014-01-29 10:05:00,
2014-01-29 04:10:00,21.7,20.1,30.00,West,270,0.0,0.0,93,0.00,,,0.00,TxWx,2014-01-29 10:10:00,
2014-01-29 04:15:00,21.7,20.4,29.99,West,270,0.0,0.0,94,0.00,,,0.00,TxWx,2014-01-29 10:15:00,
2014-01-29 04:20:00,21.7,20.2,30.00,West,270,0.0,0.0,94,0.00,,,0.00,TxWx,2014-01-29 10:20:00,
2014-01-29 04:25:00,21.8,20.4,30.00,West,270,0.0,0.0,94,0.00,,,0.00,TxWx,2014-01-29 10:25:00,
2014-01-29 04:29:00,21.8,20.4,30.00,West,270,0.0,0.0,94,0.00,,,0.00,TxWx,2014-01-29 10:29:00,
2014-01-29 04:34:00,21.7,20.3,30.00,West,270,0.0,0.0,94,0.00,,,0.00,TxWx,2014-01-29 10:34:00,
2014-01-29 04:39:00,21.5,20.1,30.00,West,270,0.0,0.0,94,0.00,,,0.00,TxWx,2014-01-29 10:39:00,
2014-01-29 04:45:00,21.5,19.9,30.00,NW,315,0.0,0.0,93,0.00,,,0.00,TxWx,2014-01-29 10:45:00,
2014-01-29 04:49:00,21.4,19.7,30.00,WNW,293,0.0,0.0,93,0.00,,,0.00,TxWx,2014-01-29 10:49:00,
2014-01-29 04:54:00,21.3,19.7,30.00,WNW,293,0.0,0.0,93,0.00,,,0.00,TxWx,2014-01-29 10:54:00,
2014-01-29 04:59:00,21.2,19.6,29.99,WNW,293,0.0,0.0,93,0.00,,,0.00,TxWx,2014-01-29 10:59:00,
2014-01-29 05:04:00,21.1,19.5,29.99,West,270,0.0,0.0,93,0.00,,,0.00,TxWx,2014-01-29 11:04:00,
2014-01-29 05:09:00,21.1,19.4,29.99,West,270,0.0,0.0,92,0.00,,,0.00,TxWx,2014-01-29 11:09:00,
2014-01-29 05:14:00,21.2,19.7,29.99,West,270,0.0,0.0,93,0.00,,,0.00,TxWx,2014-01-29 11:14:00,
2014-01-29 05:19:00,21.4,20.0,30.00,West,270,0.0,0.0,94,0.00,,,0.00,TxWx,2014-01-29 11:19:00,
2014-01-29 05:24:00,21.7,20.3,30.00,West,270,0.0,0.0,94,0.00,,,0.00,TxWx,2014-01-29 11:24:00,
2014-01-29 05:29:00,21.7,20.4,30.00,West,270,0.0,0.0,94,0.00,,,0.00,TxWx,2014-01-29 11:29:00,
2014-01-29 05:34:00,21.6,20.6,30.00,West,270,0.0,0.0,95,0.00,,,0.00,TxWx,2014-01-29 11:34:00,
2014-01-29 05:39:00,21.6,20.8,30.01,SW,225,0.0,0.0,96,0.00,,,0.00,TxWx,2014-01-29 11:39:00,
2014-01-29 05:44:00,21.6,20.9,30.01,SW,225,0.0,0.0,97,0.00,,,0.00,TxWx,2014-01-29 11:44:00,
2014-01-29 05:49:00,21.7,21.0,30.01,SW,225,0.0,0.0,97,0.00,,,0.00,TxWx,2014-01-29 11:49:00,
2014-01-29 05:54:00,21.7,21.1,30.01,SW,225,0.0,0.0,97,0.00,,,0.00,TxWx,2014-01-29 11:54:00,
2014-01-29 05:59:00,21.8,21.2,30.02,SW,225,0.0,0.0,97,0.00,,,0.00,TxWx,2014-01-29 11:59:00,
2014-01-29 06:04:00,21.9,21.2,30.02,West,270,0.0,0.0,97,0.00,,,0.00,TxWx,2014-01-29 12:04:00,
2014-01-29 06:09:00,21.9,21.3,30.01,West,270,0.0,0.0,97,0.00,,,0.00,TxWx,2014-01-29 12:09:00,
2014-01-29 06:14:00,21.9,21.1,30.01,West,270,0.0,0.0,96,0.00,,,0.00,TxWx,2014-01-29 12:14:00,
2014-01-29 06:19:00,21.9,20.8,30.02,West,270,0.0,0.0,95,0.00,,,0.00,TxWx,2014-01-29 12:19:00,
2014-01-29 06:24:00,22.0,20.7,30.02,West,270,0.0,0.0,94,0.00,,,0.00,TxWx,2014-01-29 12:24:00,
2014-01-29 06:29:00,22.0,20.8,30.02,West,270,0.0,0.0,94,0.00,,,0.00,TxWx,2014-01-29 12:29:00,
2014-01-29 06:34:00,22.1,20.6,30.02,West,270,0.0,0.0,93,0.00,,,0.00,TxWx,2014-01-29 12:34:00,
2014-01-29 06:39:00,22.1,20.7,30.02,West,270,0.0,0.0,94,0.00,,,0.00,TxWx,2014-01-29 12:39:00,
2014-01-29 06:44:00,22.2,20.7,30.02,West,270,0.0,0.0,94,0.00,,,0.00,TxWx,2014-01-29 12:44:00,
2014-01-29 06:49:00,22.2,20.6,30.03,West,270,0.0,0.0,93,0.00,,,0.00,TxWx,2014-01-29 12:49:00,
2014-01-29 06:54:00,22.1,20.6,30.03,West,270,0.0,0.0,93,0.00,,,0.00,TxWx,2014-01-29 12:54:00,
2014-01-29 06:59:00,22.1,20.8,30.03,West,270,0.0,0.0,94,0.00,,,0.00,TxWx,2014-01-29 12:59:00,
2014-01-29 07:04:00,22.1,21.0,30.03,West,270,0.0,0.0,95,0.00,,,0.00,TxWx,2014-01-29 13:04:00,
2014-01-29 07:09:00,22.0,20.9,30.03,West,270,0.0,0.0,95,0.00,,,0.00,TxWx,2014-01-29 13:09:00,
2014-01-29 07:14:00,21.9,21.2,30.03,SW,225,0.0,0.0,97,0.00,,,0.00,TxWx,2014-01-29 13:14:00,
2014-01-29 07:19:00,22.0,21.3,30.03,WSW,248,0.0,0.0,97,0.00,,,0.00,TxWx,2014-01-29 13:19:00,
2014-01-29 07:24:00,22.1,21.2,30.04,WSW,248,0.0,0.0,96,0.00,,,0.00,TxWx,2014-01-29 13:24:00,
2014-01-29 07:29:00,22.2,20.9,30.04,WSW,248,0.0,0.0,94,0.00,,,0.00,TxWx,2014-01-29 13:29:00,
2014-01-29 07:34:00,22.4,21.1,30.04,SW,225,0.0,0.0,94,0.00,,,0.00,TxWx,2014-01-29 13:34:00,
2014-01-29 07:39:00,22.5,21.6,30.04,SW,225,0.0,0.0,96,0.00,,,0.00,TxWx,2014-01-29 13:39:00,
2014-01-29 07:44:00,22.7,21.7,30.04,WNW,293,0.0,0.0,96,0.00,,,0.00,TxWx,2014-01-29 13:44:00,
2014-01-29 07:49:00,22.9,21.6,30.04,WNW,293,0.0,0.0,94,0.00,,,0.00,TxWx,2014-01-29 13:49:00,
2014-01-29 07:54:00,23.1,21.7,30.04,WSW,248,0.0,0.0,94,0.00,,,0.00,TxWx,2014-01-29 13:54:00,
2014-01-29 07:59:00,23.3,21.1,30.04,NW,315,0.0,0.0,91,0.00,,,0.00,TxWx,2014-01-29 13:59:00,
2014-01-29 08:04:00,23.5,20.3,30.03,NNW,338,0.0,0.0,87,0.00,,,0.00,TxWx,2014-01-29 14:04:00,
2014-01-29 08:09:00,23.7,20.9,30.03,West,270,0.0,0.0,88,0.00,,,0.00,TxWx,2014-01-29 14:09:00,
2014-01-29 08:14:00,23.9,20.7,30.03,WNW,293,0.0,0.0,87,0.00,,,0.00,TxWx,2014-01-29 14:14:00,
2014-01-29 08:19:00,24.2,21.1,30.03,NNW,338,0.0,0.0,87,0.00,,,0.00,TxWx,2014-01-29 14:19:00,
2014-01-29 08:24:00,24.5,21.5,30.04,North,0,0.0,0.0,88,0.00,,,0.00,TxWx,2014-01-29 14:24:00,
2014-01-29 08:29:00,24.8,21.5,30.04,West,270,0.0,0.0,87,0.00,,,0.00,TxWx,2014-01-29 14:29:00,
2014-01-29 08:34:00,25.1,21.0,30.04,NW,315,0.0,0.0,84,0.00,,,0.00,TxWx,2014-01-29 14:34:00,
2014-01-29 08:39:00,25.5,20.8,30.04,NW,315,0.0,0.0,82,0.00,,,0.00,TxWx,2014-01-29 14:39:00,
2014-01-29 08:44:00,26.0,21.5,30.04,NNW,338,0.0,0.0,82,0.00,,,0.00,TxWx,2014-01-29 14:44:00,
2014-01-29 08:49:00,26.1,20.9,30.05,WNW,293,0.0,0.0,80,0.00,,,0.00,TxWx,2014-01-29 14:49:00,
2014-01-29 08:54:00,26.7,21.4,30.05,NNE,23,0.0,0.0,80,0.00,,,0.00,TxWx,2014-01-29 14:54:00,
2014-01-29 08:59:00,26.9,20.6,30.05,West,270,0.0,0.0,76,0.00,,,0.00,TxWx,2014-01-29 14:59:00,
2014-01-29 09:04:00,27.4,20.9,30.05,WNW,293,0.0,0.0,76,0.00,,,0.00,TxWx,2014-01-29 15:04:00,
2014-01-29 09:09:00,27.8,20.4,30.05,NNE,23,0.0,0.0,73,0.00,,,0.00,TxWx,2014-01-29 15:09:00,
2014-01-29 09:14:00,28.2,20.3,30.05,NW,315,0.0,0.0,71,0.00,,,0.00,TxWx,2014-01-29 15:14:00,
2014-01-29 09:19:00,28.8,20.0,30.06,NNE,23,0.6,0.0,69,0.00,,,0.00,TxWx,2014-01-29 15:19:00,
2014-01-29 09:24:00,28.7,18.5,30.07,West,270,0.0,0.0,65,0.00,,,0.00,TxWx,2014-01-29 15:24:00,
2014-01-29 09:29:00,29.2,18.4,30.07,NNW,338,0.6,0.0,63,0.00,,,0.00,TxWx,2014-01-29 15:29:00,
2014-01-29 09:34:00,29.5,18.5,30.07,NW,315,0.0,0.0,63,0.00,,,0.00,TxWx,2014-01-29 15:34:00,
2014-01-29 09:39:00,29.4,17.6,30.08,North,0,0.6,0.0,60,0.00,,,0.00,TxWx,2014-01-29 15:39:00,
2014-01-29 09:44:00,29.5,17.8,30.08,NNW,338,0.0,0.0,61,0.00,,,0.00,TxWx,2014-01-29 15:44:00,
2014-01-29 09:49:00,29.7,17.5,30.07,NNE,23,0.0,0.0,59,0.00,,,0.00,TxWx,2014-01-29 15:49:00,
2014-01-29 09:54:00,29.5,16.3,30.08,SE,135,0.0,0.0,57,0.00,,,0.00,TxWx,2014-01-29 15:54:00,
2014-01-29 09:59:00,29.7,17.1,30.08,ESE,113,1.7,1.7,58,0.00,,,0.00,TxWx,2014-01-29 15:59:00,
2014-01-29 10:04:00,30.0,17.2,30.07,ENE,68,1.7,1.7,58,0.00,,,0.00,TxWx,2014-01-29 16:04:00,
2014-01-29 10:09:00,30.2,17.0,30.08,West,270,0.0,0.0,57,0.00,,,0.00,TxWx,2014-01-29 16:09:00,
2014-01-29 10:14:00,30.8,18.0,30.08,West,270,0.0,0.0,58,0.00,,,0.00,TxWx,2014-01-29 16:14:00,
2014-01-29 10:19:00,30.9,17.2,30.08,WNW,293,0.0,0.0,56,0.00,,,0.00,TxWx,2014-01-29 16:19:00,
2014-01-29 10:24:00,31.1,16.8,30.09,SSW,203,0.0,0.0,55,0.00,,,0.00,TxWx,2014-01-29 16:24:00,
2014-01-29 10:29:00,31.7,17.8,30.09,West,270,0.0,0.0,56,0.00,,,0.00,TxWx,2014-01-29 16:29:00,
2014-01-29 10:34:00,31.6,17.4,30.09,WSW,248,0.0,0.0,55,0.00,,,0.00,TxWx,2014-01-29 16:34:00,
2014-01-29 10:39:00,31.8,16.7,30.09,SW,225,3.7,3.7,53,0.00,,,0.00,TxWx,2014-01-29 16:39:00,
2014-01-29 10:44:00,31.2,16.3,30.08,ESE,113,2.5,3.0,53,0.00,,,0.00,TxWx,2014-01-29 16:44:00,
2014-01-29 10:49:00,31.5,17.2,30.08,NNE,23,1.2,1.2,54,0.00,,,0.00,TxWx,2014-01-29 16:49:00,
2014-01-29 10:54:00,31.4,16.4,30.08,WSW,248,0.0,1.0,53,0.00,,,0.00,TxWx,2014-01-29 16:54:00,
2014-01-29 10:59:00,32.0,17.3,30.08,West,270,0.0,0.0,54,0.00,,,0.00,TxWx,2014-01-29 16:59:00,
2014-01-29 11:04:00,32.1,16.7,30.08,WSW,248,0.0,0.0,52,0.00,,,0.00,TxWx,2014-01-29 17:04:00,
2014-01-29 11:09:00,33.1,18.0,30.08,East,90,0.6,0.0,53,0.00,,,0.00,TxWx,2014-01-29 17:09:00,
2014-01-29 11:14:00,32.9,17.1,30.08,East,90,1.2,1.2,51,0.00,,,0.00,TxWx,2014-01-29 17:14:00,
2014-01-29 11:19:00,33.2,16.6,30.08,WNW,293,0.0,0.0,50,0.01,,,0.01,TxWx,2014-01-29 17:19:00,
2014-01-29 11:24:00,32.6,15.1,30.08,WSW,248,1.7,2.0,47,0.01,,,0.01,TxWx,2014-01-29 17:24:00,
2014-01-29 11:29:00,33.0,15.6,30.08,NNE,23,1.2,1.2,48,0.01,,,0.01,TxWx,2014-01-29 17:29:00,
2014-01-29 11:34:00,32.7,14.4,30.08,SSE,158,1.2,1.2,46,0.01,,,0.01,TxWx,2014-01-29 17:34:00,
2014-01-29 11:39:00,33.1,15.1,30.07,ESE,113,1.7,1.7,47,0.01,,,0.01,TxWx,2014-01-29 17:39:00,
2014-01-29 11:44:00,33.5,15.6,30.07,WSW,248,0.0,0.0,47,0.01,,,0.01,TxWx,2014-01-29 17:44:00,
2014-01-29 11:49:00,34.1,16.2,30.06,WSW,248,3.1,3.1,47,0.01,,,0.01,TxWx,2014-01-29 17:49:00,
2014-01-29 11:54:00,33.5,16.1,30.06,SSW,203,1.2,1.2,48,0.01,,,0.01,TxWx,2014-01-29 17:54:00,
2014-01-29 11:59:00,33.6,16.0,30.06,SE,135,1.2,1.2,47,0.01,,,0.01,TxWx,2014-01-29 17:59:00,
2014-01-29 12:04:00,33.8,16.5,30.06,NNE,23,0.6,1.0,48,0.01,,,0.01,TxWx,2014-01-29 18:04:00,
2014-01-29 12:09:00,34.4,17.0,30.06,SW,225,0.6,0.0,48,0.01,,,0.01,TxWx,2014-01-29 18:09:00,
2014-01-29 12:14:00,35.2,17.1,30.05,SSW,203,2.5,2.5,47,0.01,,,0.01,TxWx,2014-01-29 18:14:00,
2014-01-29 12:19:00,34.4,15.9,30.05,South,180,3.7,3.7,46,0.00,,,0.01,TxWx,2014-01-29 18:19:00,
2014-01-29 12:24:00,34.9,16.0,30.05,WSW,248,0.0,0.0,45,0.01,,,0.02,TxWx,2014-01-29 18:24:00,
2014-01-29 12:29:00,35.3,16.3,30.05,WSW,248,1.2,1.2,45,0.01,,,0.02,TxWx,2014-01-29 18:29:00,
2014-01-29 12:34:00,35.6,15.3,30.04,South,180,1.2,1.2,42,0.01,,,0.02,TxWx,2014-01-29 18:34:00,
2014-01-29 12:39:00,35.2,15.1,30.04,NNW,338,3.7,4.0,43,0.01,,,0.02,TxWx,2014-01-29 18:39:00,
2014-01-29 12:44:00,35.6,17.0,30.04,West,270,0.0,0.0,46,0.01,,,0.02,TxWx,2014-01-29 18:44:00,
2014-01-29 12:49:00,36.3,16.6,30.03,West,270,2.5,3.0,44,0.01,,,0.02,TxWx,2014-01-29 18:49:00,
2014-01-29 12:54:00,35.5,15.3,30.03,WNW,293,0.6,0.0,43,0.01,,,0.02,TxWx,2014-01-29 18:54:00,
2014-01-29 12:59:00,35.6,15.3,30.03,NNE,23,1.7,1.7,43,0.01,,,0.02,TxWx,2014-01-29 18:59:00,
2014-01-29 13:04:00,36.3,16.1,30.02,SW,225,3.1,3.1,43,0.01,,,0.02,TxWx,2014-01-29 19:04:00,
2014-01-29 13:09:00,37.0,17.6,30.02,SE,135,1.7,1.7,44,0.01,,,0.02,TxWx,2014-01-29 19:09:00,
2014-01-29 13:14:00,38.0,17.5,30.01,South,180,0.6,1.0,43,0.01,,,0.02,TxWx,2014-01-29 19:14:00,
2014-01-29 13:19:00,38.3,17.7,30.01,WSW,248,0.0,0.0,42,0.02,,,0.03,TxWx,2014-01-29 19:19:00,
2014-01-29 13:24:00,38.0,16.3,30.00,West,270,1.2,1.2,40,0.01,,,0.03,TxWx,2014-01-29 19:24:00,
2014-01-29 13:29:00,38.1,16.0,30.00,WNW,293,3.1,3.1,40,0.01,,,0.03,TxWx,2014-01-29 19:29:00,
2014-01-29 13:34:00,39.1,17.7,30.00,NW,315,0.6,1.0,41,0.01,,,0.03,TxWx,2014-01-29 19:34:00,
2014-01-29 13:39:00,38.8,15.5,29.99,SSW,203,0.6,0.0,38,0.01,,,0.03,TxWx,2014-01-29 19:39:00,
2014-01-29 13:44:00,38.4,14.5,29.99,WNW,293,0.6,0.0,37,0.01,,,0.03,TxWx,2014-01-29 19:44:00,
2014-01-29 13:49:00,38.5,14.8,29.99,WNW,293,0.6,0.0,37,0.01,,,0.03,TxWx,2014-01-29 19:49:00,
2014-01-29 13:54:00,39.0,15.1,29.99,South,180,0.0,0.0,37,0.01,,,0.03,TxWx,2014-01-29 19:54:00,
2014-01-29 13:59:00,38.9,14.2,29.98,WSW,248,1.2,1.2,36,0.01,,,0.03,TxWx,2014-01-29 19:59:00,
2014-01-29 14:04:00,39.1,12.7,29.98,WSW,248,2.5,2.5,33,0.01,,,0.03,TxWx,2014-01-29 20:04:00,
2014-01-29 14:09:00,39.2,13.1,29.98,East,90,1.2,1.2,33,0.01,,,0.03,TxWx,2014-01-29 20:09:00,
2014-01-29 14:14:00,39.6,14.6,29.97,West,270,2.5,2.5,35,0.01,,,0.03,TxWx,2014-01-29 20:14:00,
2014-01-29 14:19:00,39.5,12.5,29.97,ESE,113,1.7,1.7,32,0.00,,,0.03,TxWx,2014-01-29 20:19:00,
2014-01-29 14:24:00,39.9,14.2,29.97,WNW,293,1.2,1.2,34,0.00,,,0.03,TxWx,2014-01-29 20:24:00,
2014-01-29 14:29:00,40.2,13.9,29.96,WNW,293,3.7,3.7,33,0.00,,,0.03,TxWx,2014-01-29 20:29:00,
2014-01-29 14:34:00,40.6,14.2,29.96,SE,135,0.6,1.0,33,0.00,,,0.03,TxWx,2014-01-29 20:34:00,
2014-01-29 14:39:00,40.7,13.5,29.96,NW,315,0.6,1.0,32,0.00,,,0.03,TxWx,2014-01-29 20:39:00,
2014-01-29 14:44:00,39.7,12.5,29.96,SSE,158,2.5,3.0,32,0.00,,,0.03,TxWx,2014-01-29 20:44:00,
2014-01-29 14:49:00,41.3,14.7,29.95,WNW,293,1.7,1.7,33,0.00,,,0.03,TxWx,2014-01-29 20:49:00,
2014-01-29 14:54:00,42.2,14.0,29.95,West,270,3.7,4.0,31,0.00,,,0.03,TxWx,2014-01-29 20:54:00,
2014-01-29 14:59:00,42.1,14.0,29.95,South,180,0.0,0.0,31,0.00,,,0.03,TxWx,2014-01-29 20:59:00,
2014-01-29 15:04:00,42.5,15.6,29.95,SE,135,1.2,1.2,33,0.00,,,0.03,TxWx,2014-01-29 21:04:00,
2014-01-29 15:09:00,42.6,15.6,29.95,WSW,248,0.0,0.0,33,0.00,,,0.03,TxWx,2014-01-29 21:09:00,
2014-01-29 15:14:00,41.7,14.5,29.94,West,270,3.1,3.1,32,0.00,,,0.03,TxWx,2014-01-29 21:14:00,
2014-01-29 15:19:00,41.7,14.6,29.94,East,90,3.7,3.7,32,0.00,,,0.03,TxWx,2014-01-29 21:19:00,
2014-01-29 15:24:00,41.1,14.3,29.94,SE,135,3.7,3.7,33,0.00,,,0.03,TxWx,2014-01-29 21:24:00,
2014-01-29 15:29:00,41.0,14.5,29.94,South,180,1.7,1.7,33,0.00,,,0.03,TxWx,2014-01-29 21:29:00,
2014-01-29 15:34:00,40.4,13.5,29.93,WSW,248,2.5,2.5,32,0.00,,,0.03,TxWx,2014-01-29 21:34:00,
2014-01-29 15:40:00,41.3,15.4,29.93,ESE,113,3.1,3.1,34,0.00,,,0.03,TxWx,2014-01-29 21:40:00,
2014-01-29 15:45:00,41.4,14.7,29.93,East,90,2.5,3.0,33,0.00,,,0.03,TxWx,2014-01-29 21:45:00,
2014-01-29 15:50:00,41.3,14.4,29.93,East,90,3.1,3.1,33,0.00,,,0.03,TxWx,2014-01-29 21:50:00,
2014-01-29 15:55:00,41.5,14.2,29.92,East,90,1.2,1.2,32,0.00,,,0.03,TxWx,2014-01-29 21:55:00,
2014-01-29 16:00:00,41.3,13.7,29.92,South,180,0.6,1.0,31,0.00,,,0.03,TxWx,2014-01-29 22:00:00,
2014-01-29 16:05:00,41.5,13.4,29.92,South,180,0.0,0.0,31,0.00,,,0.03,TxWx,2014-01-29 22:05:00,
2014-01-29 16:10:00,41.5,13.9,29.92,ENE,68,0.6,0.0,32,0.00,,,0.03,TxWx,2014-01-29 22:10:00,
2014-01-29 16:15:00,42.0,14.5,29.92,East,90,1.2,1.2,32,0.00,,,0.03,TxWx,2014-01-29 22:15:00,
2014-01-29 16:20:00,42.1,15.2,29.92,SSW,203,0.6,0.0,33,0.00,,,0.03,TxWx,2014-01-29 22:20:00,
2014-01-29 16:25:00,41.5,14.4,29.92,ESE,113,4.3,4.3,32,0.00,,,0.03,TxWx,2014-01-29 22:25:00,
2014-01-29 16:30:00,41.6,14.9,29.93,SSE,158,1.2,1.2,33,0.00,,,0.03,TxWx,2014-01-29 22:30:00,
2014-01-29 16:35:00,41.6,14.2,29.93,East,90,0.6,0.0,32,0.00,,,0.03,TxWx,2014-01-29 22:35:00,
2014-01-29 16:40:00,41.7,14.4,29.93,South,180,0.0,0.0,32,0.00,,,0.03,TxWx,2014-01-29 22:40:00,
2014-01-29 16:45:00,41.6,13.7,29.93,NW,315,1.2,1.2,31,0.00,,,0.03,TxWx,2014-01-29 22:45:00,
2014-01-29 16:50:00,41.4,13.8,29.93,WNW,293,1.2,1.2,32,0.00,,,0.03,TxWx,2014-01-29 22:50:00,
2014-01-29 16:55:00,42.0,14.4,29.93,ENE,68,0.0,0.0,32,0.00,,,0.03,TxWx,2014-01-29 22:55:00,
2014-01-29 17:00:00,41.8,15.6,29.94,SSE,158,0.0,0.0,34,0.00,,,0.03,TxWx,2014-01-29 23:00:00,
2014-01-29 17:05:00,41.1,15.1,29.94,SE,135,0.6,0.0,34,0.00,,,0.03,TxWx,2014-01-29 23:05:00,
2014-01-29 17:10:00,40.8,13.8,29.93,South,180,0.0,0.0,32,0.00,,,0.03,TxWx,2014-01-29 23:10:00,
2014-01-29 17:15:00,40.5,13.6,29.93,ENE,68,1.7,1.7,32,0.00,,,0.03,TxWx,2014-01-29 23:15:00,
2014-01-29 17:20:00,40.3,13.4,29.93,South,180,0.6,0.0,32,0.00,,,0.03,TxWx,2014-01-29 23:20:00,
2014-01-29 17:25:00,40.4,14.9,29.93,South,180,0.0,0.0,34,0.00,,,0.03,TxWx,2014-01-29 23:25:00,
2014-01-29 17:30:00,40.1,14.3,29.93,South,180,0.0,0.0,34,0.00,,,0.03,TxWx,2014-01-29 23:30:00,
2014-01-29 17:35:00,39.9,15.7,29.93,SW,225,0.0,0.0,36,0.00,,,0.03,TxWx,2014-01-29 23:35:00,
2014-01-29 17:40:00,39.6,15.0,29.93,SSW,203,0.0,0.0,36,0.00,,,0.03,TxWx,2014-01-29 23:40:00,
2014-01-29 17:45:00,39.0,16.9,29.93,SSW,203,0.0,0.0,40,0.00,,,0.03,TxWx,2014-01-29 23:45:00,
2014-01-29 17:50:00,38.6,15.7,29.93,SW,225,0.0,0.0,38,0.00,,,0.03,TxWx,2014-01-29 23:50:00,
2014-01-29 17:55:00,38.0,17.2,29.93,SW,225,0.0,0.0,42,0.00,,,0.03,TxWx,2014-01-29 23:55:00,
2014-01-29 18:00:00,37.2,19.1,29.93,SW,225,0.0,0.0,47,0.00,,,0.03,TxWx,2014-01-30 00:00:00,
2014-01-29 18:05:00,36.7,18.5,29.93,SW,225,0.0,0.0,47,0.00,,,0.03,TxWx,2014-01-30 00:05:00,
2014-01-29 18:10:00,36.3,19.2,29.92,SW,225,0.0,0.0,49,0.00,,,0.03,TxWx,2014-01-30 00:10:00,
2014-01-29 18:15:00,35.7,20.3,29.93,WSW,248,0.0,0.0,53,0.00,,,0.03,TxWx,2014-01-30 00:15:00,
2014-01-29 18:20:00,35.1,18.3,29.93,SE,135,1.7,1.7,49,0.00,,,0.03,TxWx,2014-01-30 00:20:00,
2014-01-29 18:25:00,35.5,18.6,29.93,South,180,0.0,0.0,49,0.00,,,0.03,TxWx,2014-01-30 00:25:00,
2014-01-29 18:30:00,35.7,18.3,29.93,SSW,203,0.0,0.0,48,0.00,,,0.03,TxWx,2014-01-30 00:30:00,
2014-01-29 18:35:00,35.7,18.3,29.93,SSW,203,0.0,0.0,48,0.00,,,0.03,TxWx,2014-01-30 00:35:00,
2014-01-29 18:40:00,35.4,18.9,29.93,SSW,203,0.0,0.0,50,0.00,,,0.03,TxWx,2014-01-30 00:40:00,
2014-01-29 18:45:00,35.2,18.3,29.93,SSW,203,0.0,0.0,49,0.00,,,0.03,TxWx,2014-01-30 00:45:00,
2014-01-29 18:50:00,34.8,18.9,29.93,SSW,203,0.0,0.0,51,0.00,,,0.03,TxWx,2014-01-30 00:50:00,
2014-01-29 18:55:00,34.5,19.3,29.93,South,180,0.0,0.0,53,0.00,,,0.03,TxWx,2014-01-30 00:55:00,
2014-01-29 19:00:00,34.4,19.1,29.92,South,180,0.0,0.0,53,0.00,,,0.03,TxWx,2014-01-30 01:00:00,
2014-01-29 19:05:00,34.1,18.6,29.92,SSE,158,0.0,0.0,52,0.00,,,0.03,TxWx,2014-01-30 01:05:00,
2014-01-29 19:10:00,34.0,18.7,29.92,SSE,158,0.0,0.0,53,0.00,,,0.03,TxWx,2014-01-30 01:10:00,
2014-01-29 19:15:00,34.0,18.2,29.92,South,180,0.0,0.0,52,0.00,,,0.03,TxWx,2014-01-30 01:15:00,
2014-01-29 19:20:00,33.9,18.2,29.91,SSW,203,0.0,0.0,52,0.00,,,0.03,TxWx,2014-01-30 01:20:00,
2014-01-29 19:25:00,33.7,18.4,29.92,South,180,0.0,0.0,53,0.00,,,0.03,TxWx,2014-01-30 01:25:00,
2014-01-29 19:30:00,33.7,18.2,29.91,SE,135,0.6,1.0,52,0.00,,,0.03,TxWx,2014-01-30 01:30:00,
2014-01-29 19:35:00,33.6,17.9,29.91,SSW,203,0.0,0.0,52,0.00,,,0.03,TxWx,2014-01-30 01:35:00,
2014-01-29 19:40:00,33.7,17.2,29.92,SSW,203,0.0,0.0,50,0.00,,,0.03,TxWx,2014-01-30 01:40:00,
2014-01-29 19:45:00,33.5,18.2,29.92,SSE,158,0.0,0.0,52,0.00,,,0.03,TxWx,2014-01-30 01:45:00,
2014-01-29 19:50:00,33.4,17.6,29.92,South,180,0.6,0.0,51,0.00,,,0.03,TxWx,2014-01-30 01:50:00,
2014-01-29 19:55:00,33.4,17.5,29.92,South,180,0.6,0.0,51,0.00,,,0.03,TxWx,2014-01-30 01:55:00,
2014-01-29 20:00:00,33.5,16.4,29.91,SSE,158,0.0,0.0,48,0.00,,,0.03,TxWx,2014-01-30 02:00:00,
2014-01-29 20:05:00,33.4,16.6,29.92,SSW,203,0.0,0.0,49,0.00,,,0.03,TxWx,2014-01-30 02:05:00,
2014-01-29 20:10:00,33.3,16.7,29.91,SSE,158,1.7,2.0,50,0.00,,,0.03,TxWx,2014-01-30 02:10:00,
2014-01-29 20:15:00,33.1,16.5,29.91,SSW,203,0.0,0.0,50,0.00,,,0.03,TxWx,2014-01-30 02:15:00,
2014-01-29 20:20:00,32.9,16.4,29.92,SSW,203,0.0,0.0,50,0.00,,,0.03,TxWx,2014-01-30 02:20:00,
2014-01-29 20:25:00,32.7,16.5,29.92,SW,225,0.0,0.0,50,0.00,,,0.03,TxWx,2014-01-30 02:25:00,
2014-01-29 20:30:00,32.4,17.0,29.91,SW,225,0.0,0.0,52,0.00,,,0.03,TxWx,2014-01-30 02:30:00,
2014-01-29 20:35:00,32.0,17.3,29.91,SSW,203,0.0,0.0,54,0.00,,,0.03,TxWx,2014-01-30 02:35:00,
2014-01-29 20:40:00,31.8,17.3,29.91,WSW,248,0.0,0.0,54,0.00,,,0.03,TxWx,2014-01-30 02:40:00,
2014-01-29 20:45:00,31.3,18.5,29.91,South,180,0.0,0.0,58,0.00,,,0.03,TxWx,2014-01-30 02:45:00,
2014-01-29 20:50:00,30.9,18.6,29.91,SSW,203,0.0,0.0,60,0.00,,,0.03,TxWx,2014-01-30 02:50:00,
2014-01-29 20:55:00,30.8,17.9,29.91,WSW,248,0.0,0.0,58,0.00,,,0.03,TxWx,2014-01-30 02:55:00,
2014-01-29 21:00:00,30.9,16.8,29.91,South,180,0.0,0.0,55,0.00,,,0.03,TxWx,2014-01-30 03:00:00,
2014-01-29 21:05:00,30.9,17.0,29.91,SSW,203,0.0,0.0,55,0.00,,,0.03,TxWx,2014-01-30 03:05:00,
2014-01-29 21:10:00,30.6,17.7,29.91,South,180,0.0,0.0,58,0.00,,,0.03,TxWx,2014-01-30 03:10:00,
2014-01-29 21:15:00,30.2,17.6,29.91,SSE,158,0.0,0.0,58,0.00,,,0.03,TxWx,2014-01-30 03:15:00,
2014-01-29 21:20:00,30.1,18.2,29.90,SSW,203,0.0,0.0,60,0.00,,,0.03,TxWx,2014-01-30 03:20:00,
2014-01-29 21:25:00,29.9,17.6,29.90,SW,225,0.0,0.0,59,0.00,,,0.03,TxWx,2014-01-30 03:25:00,
2014-01-29 21:30:00,29.8,17.8,29.90,SW,225,0.0,0.0,60,0.00,,,0.03,TxWx,2014-01-30 03:30:00,
2014-01-29 21:35:00,29.6,17.1,29.90,SSW,203,0.0,0.0,59,0.00,,,0.03,TxWx,2014-01-30 03:35:00,
2014-01-29 21:40:00,29.5,17.1,29.91,WSW,248,0.0,0.0,59,0.00,,,0.03,TxWx,2014-01-30 03:40:00,
2014-01-29 21:45:00,29.1,17.4,29.91,WSW,248,0.0,0.0,61,0.00,,,0.03,TxWx,2014-01-30 03:45:00,
2014-01-29 21:50:00,28.7,18.1,29.90,WSW,248,0.0,0.0,63,0.00,,,0.03,TxWx,2014-01-30 03:50:00,
2014-01-29 21:55:00,28.7,17.1,29.90,WSW,248,0.0,0.0,61,0.00,,,0.03,TxWx,2014-01-30 03:55:00,
2014-01-29 22:00:00,28.4,19.3,29.90,WSW,248,0.0,0.0,68,0.00,,,0.03,TxWx,2014-01-30 04:00:00,
2014-01-29 22:05:00,28.2,18.1,29.90,WSW,248,0.0,0.0,65,0.00,,,0.03,TxWx,2014-01-30 04:05:00,
2014-01-29 22:10:00,27.9,18.7,29.90,SW,225,0.0,0.0,67,0.00,,,0.03,TxWx,2014-01-30 04:10:00,
2014-01-29 22:15:00,27.8,18.1,29.90,South,180,0.0,0.0,66,0.00,,,0.03,TxWx,2014-01-30 04:15:00,
2014-01-29 22:20:00,28.2,17.2,29.90,South,180,0.0,0.0,63,0.00,,,0.03,TxWx,2014-01-30 04:20:00,
2014-01-29 22:25:00,28.3,17.4,29.90,SSW,203,0.0,0.0,63,0.00,,,0.03,TxWx,2014-01-30 04:25:00,
2014-01-29 22:30:00,28.5,16.0,29.90,WSW,248,0.0,0.0,58,0.00,,,0.03,TxWx,2014-01-30 04:30:00,
2014-01-29 22:35:00,28.7,16.3,29.90,South,180,0.6,0.0,59,0.00,,,0.03,TxWx,2014-01-30 04:35:00,
2014-01-29 22:40:00,28.8,15.8,29.90,SSW,203,0.0,0.0,57,0.00,,,0.03,TxWx,2014-01-30 04:40:00,
2014-01-29 22:45:00,28.8,15.8,29.90,SSW,203,0.0,0.0,57,0.00,,,0.03,TxWx,2014-01-30 04:45:00,
2014-01-29 22:50:00,28.8,15.6,29.90,WSW,248,0.0,0.0,57,0.00,,,0.03,TxWx,2014-01-30 04:50:00,
2014-01-29 22:55:00,28.8,15.5,29.90,WSW,248,0.0,0.0,57,0.00,,,0.03,TxWx,2014-01-30 04:55:00,
2014-01-29 23:00:00,28.8,15.5,29.90,SW,225,0.0,0.0,57,0.00,,,0.00,TxWx,2014-01-30 05:00:00,
2014-01-29 23:01:00,28.8,15.5,29.90,SW,225,0.0,0.0,57,0.00,,,0.00,TxWx,2014-01-30 05:01:00,
2014-01-29 23:06:00,28.8,15.7,29.90,SSW,203,0.0,0.0,57,0.00,,,0.00,TxWx,2014-01-30 05:06:00,
2014-01-29 23:11:00,29.0,15.6,29.90,South,180,0.0,0.0,56,0.00,,,0.00,TxWx,2014-01-30 05:11:00,
2014-01-29 23:16:00,29.1,15.9,29.89,SSE,158,0.0,0.0,57,0.00,,,0.00,TxWx,2014-01-30 05:16:00,
2014-01-29 23:21:00,29.1,16.0,29.89,SSW,203,0.0,0.0,57,0.00,,,0.00,TxWx,2014-01-30 05:21:00,
2014-01-29 23:26:00,29.1,16.1,29.89,SSW,203,0.0,0.0,57,0.00,,,0.00,TxWx,2014-01-30 05:26:00,
2014-01-29 23:31:00,29.0,16.3,29.89,South,180,1.2,1.2,58,0.00,,,0.00,TxWx,2014-01-30 05:31:00,
2014-01-29 23:36:00,29.0,16.2,29.89,SSW,203,0.0,0.0,58,0.00,,,0.00,TxWx,2014-01-30 05:36:00,
2014-01-29 23:41:00,28.9,16.4,29.89,WSW,248,0.0,0.0,59,0.00,,,0.00,TxWx,2014-01-30 05:41:00,
2014-01-29 23:46:00,28.9,16.5,29.90,WSW,248,0.0,0.0,59,0.00,,,0.00,TxWx,2014-01-30 05:46:00,
2014-01-29 23:51:00,28.8,16.4,29.89,South,180,0.0,0.0,59,0.00,,,0.00,TxWx,2014-01-30 05:51:00,
2014-01-29 23:56:00,28.8,16.6,29.89,SSW,203,1.7,1.7,59,0.00,,,0.00,TxWx,2014-01-30 05:56:00,